Location: Kunchanapalle
(16.4623°N, 80.6176°E)
Time: 14:25:20
(UTC+00:00)

Cosmos 1782 - Pass Details

Date: 13 August 2020
Orbit: 538 x 550 km, 82.5° (Epoch: 24 September)

Event Time Altitude Azimuth Distance (km) Brightness Sun altitude
Rises 13:40:54 0° 8° (N) 2,713 6.5 -9.5°
Reaches altitude 10° 13:43:12 10° 17° (NNE) 1,820 5.5 -10.0°
Maximum altitude 13:46:52 35° 84° (E) 904 3.4 -10.8°
Drops below altitude 10° 13:50:33 10° 150° (SSE) 1,818 5.0 -11.6°
Enters shadow 13:50:47 - 152° (SSE) 1,910 5.1 -11.7°
